Regional Weather Roundup
Issued by NWS Green Bay, WI

Home | Current Version | Previous Version | Graphics & Text | Print | Product List | Glossary Off
Versions: 1 2 3 4 5 6 7 8 9 10 11 12 13 14 15 16 17 18 19 20 21 22 23 24 25 26 27 28 29 30 31 32 33 34 35 36 37 38 39 40 41 42 43 44 45 46 47 48 49 50

000
ASUS43 KGRB 280659
RWRGRB

NORTH-CENTRAL AND NORTHEAST WISCONSIN REGIONAL WEATHER ROUNDUP
NATIONAL WEATHER SERVICE GREEN BAY WI
200 AM CDT SAT MAR 28 2015

WIZ005-009-010>012-018-019-280800-
NORTH CENTRAL WISCONSIN

CITY           SKY/WX    TMP DP  RH WIND       PRES   REMARKS
IRONWOOD       CLEAR      7   3  85 CALM      30.16S
MANITOWISH WTR NOT AVBL
ARBOR VITAE    NOT AVBL
EAGLE RIVER    NOT AVBL
LAND O LAKES   NOT AVBL
RHINELANDER    CLEAR      8   0  69 CALM      30.17R
PHILLIPS       CLEAR     15   7  72 CALM      30.16S
ANTIGO         NOT AVBL
TOMAHAWK       NOT AVBL
MERRILL        NOT AVBL
$$

WIZ013-073-280800-
NORTHEAST WISCONSIN

CITY           SKY/WX    TMP DP  RH WIND       PRES   REMARKS
IRON MOUNTAIN  CLEAR      6  -3  66 CALM      30.20R
MARINETTE      CLEAR     12   7  79 CALM      30.25R
$$

WIZ017-030-035>037-045-280800-
CENTRAL WISCONSIN

CITY           SKY/WX    TMP DP  RH WIND       PRES   REMARKS
MEDFORD        NOT AVBL
WAUSAU         CLEAR     17   9  70 E7        30.18R WCI   8
MOSINEE        CLEAR     18  10  73 E6        30.20R WCI   9
MARSHFIELD     CLEAR     22  11  62 CALM      30.18R
WISC RAPIDS    CLEAR     14   9  80 CALM      30.21R
STEVENS POINT  NOT AVBL
WAUPACA        CLEAR     19  12  74 CALM      30.23S
SHAWANO        CLEAR     17  12  81 CALM      30.25R
CLINTONVILLE   CLEAR     18  10  73 CALM      30.24R
$$

WIZ038-039-048-051-280800-
FOX VALLEY

CITY           SKY/WX    TMP DP  RH WIND       PRES   REMARKS
NWS GREEN BAY  CLEAR     21  15  78 NW3       30.25R
APPLETON       NOT AVBL
OSHKOSH        CLEAR     18  11  74 CALM      30.23R
FOND DU LAC    CLEAR     16  10  77 CALM      30.23R
$$

WIZ022-050-052-280800-
EAST CENTRAL WISCONSIN

CITY           SKY/WX    TMP DP  RH WIND       PRES   REMARKS
STURGEON BAY   CLEAR     14   3  62 N3        30.26R
MANITOWOC      NOT AVBL
SHEBOYGAN      CLEAR     15  11  83 W3        30.23S
$$

LMZ563-521-522-541>543-280800-
LAKESHORE

STATION/POSITION TIME  TEMP    WIND        PRES    VSBY  WAVE
                       AIR SEA DIR/SP/G                  HT/PER
                 (UTC) (F)     (DEG/KT/KT) (MB)    (MI)  (FT/S)
SHEBOYGAN LKSHOR 0600   25      30/  8/ 10 1025.0R
KEWAUNEE LKSHORE 0600   20     330/  3/  6 1022.9F
NORTHPORT PIER   0600   18     360/  6/  8 1024.4R
CHAMBERS ISLAND  0600   17      50/  4/  6 1024.4S
MENOMINEE LKSHOR 0600   17     360/  4     1025.0S
$$


USA.gov is the U.S. government's official web portal to all federal, state and local government web resources and services.